STARLINK-1063, 44768

Orbit data source: Space-Track

STARLINK-1063, 44768 is a payload satellite owned by SpaceX/Seattle (US) in LEO that was launched on Mon, 11 Nov 2019 UTC via an FALCON 9 launch vehicle from the Air Force Eastern Test Range (AFETR). Payload-class satellites include a variety of spacecraft equipped with specific instruments for various scientific and technological missions. These include communications satellites like Starlink; space stations such as the ISS; scientific satellites like the Hubble; Earth observation satellites from companies like Planet Labs, Umbra, and HawkEye 360; GPS; miniature CubeSats for education and research; and military/defense satellites.

Loading next visibility...
Identifier
44768, 2019-074BH
Orbit
LEO
Country
Flag of USUS
Related business
Manufacturer
SpaceX/Seattle
Mission
Operational Commercial Communications
Bus & Motor
STARLINK, Unknown motor
Mass
260 kg wet, ~248 kg dry
Launch date (UTC)
2019-11-11 (6 years ago)
Launch vehicle
FALCON 9
Launch site
Air Force Eastern Test Range (AFETR)
Object type
Payload
Rocket body
Debris
Shape & HBR
Box + 1 Pan, 10.1 m
Radar Cross Section
13.562 m², Large (>1 m²)

Expand to show TLE details & history
Last TLE update: 8 hours ago

TLE from 8 hours ago
0 STARLINK-1063
1 44768U 19074BH  25306.43682981  .00000752  00000-0  69386-4 0  9997
2 44768  53.0547  77.8785 0001226  86.0297 274.0832 15.06400767329028
Epoch: 2025-11-02T10:29Z
TLE epoch observation values (Epoch: 2025-11-02T10:29:02.095Z)
Latitude
-0.00004°
Longitude
-121.33283°
Altitude
548.028 km
Speed
7.589 km/s
True Right ascension
05h 11m 30s
True Declination
0° 00' 00"
Sunlit
Object was in full shadow at epoch
Visualization orbit readout
Latitude
Unknown
Longitude
Unknown
Altitude
Unknown
Speed
Unknown
Apparent Right ascension
Unknown
Apparent Declination
Unknown
Sunlit
N/A
Visualization observer readout
Local Sidereal Time
14:12:49
Azimuth
Unknown
Elevation
Unknown
Doppler factor
Unknown
Orbital elements
Apogee altitude
548.329 km
Perigee altitude
546.631 km
Semi-major axis
6,925.617 km
Eccentricity
0.00012
Inclination
53.0547°
RAAN
77.8785°
Arg. of periapsis
86.0297°
True anomaly
274.06919°
Mean anomaly
274.0832°
Eccentric anomaly
274.07619°
Mean motion
3.76578 °/min
Orbital period
95.6 mins
BSTAR
0.000069386
Loading maneuver chart data...
Computing Atmospheric mass density...
Loading historical data...
Loading historical data...
Loading historical data...
Loading historical data...
Loading historical data...
Loading historical data...
Loading historical data...

Documentation

Showing up to 5 results
|